This is the latest recevied weather packets stored in our database for station/object IK2ILW-4. If no packets are shown the sender has not sent any weather packets the latest 10 day(s).
| Time | Temp. | Humidity | Pressure | Rain* | Wind** | Luminosity | Snow |
|---|---|---|---|---|---|---|---|
| 1788078469 | 20.56° C | 70% | 1021.9 hPa | 0 mm | - | 587 W/m² | - |
| 1788078156 | 20° C | 71% | 1021.9 hPa | 0 mm | - | 568 W/m² | - |
| 1788077860 | 20° C | 71% | 1021.9 hPa | 0 mm | - | 554 W/m² | - |
| 1788077555 | 19.44° C | 71% | 1022 hPa | 0 mm | - | 538 W/m² | - |
| 1788077251 | 19.44° C | 72% | 1022 hPa | 0 mm | - | 526 W/m² | - |
| 1788076959 | 18.33° C | 75% | 1022 hPa | 0 mm | - | 512 W/m² | - |
| 1788076674 | 18.89° C | 74% | 1021.8 hPa | 0 mm | - | 97 W/m² | - |
| 1788076370 | 19.44° C | 73% | 1021.8 hPa | 0 mm | - | 480 W/m² | - |
| 1788076056 | 19.44° C | 74% | 1021.8 hPa | 0 mm | - | 466 W/m² | - |
| 1788075774 | 19.44° C | 75% | 1021.7 hPa | 0 mm | - | 457 W/m² | - |
| 1788075471 | 19.44° C | 75% | 1021.7 hPa | 0 mm | - | 443 W/m² | - |
| 1788075156 | 19.44° C | 76% | 1021.7 hPa | 0 mm | - | 438 W/m² | - |
| 1788074874 | 19.44° C | 76% | 1021.7 hPa | 0 mm | - | 425 W/m² | - |
| 1788074564 | 19.44° C | 75% | 1021.7 hPa | 0 mm | - | 408 W/m² | - |
| 1788074275 | 19.44° C | 75% | 1021.7 hPa | 0 mm | - | 390 W/m² | - |
| 1788073955 | 18.89° C | 77% | 1021.6 hPa | 0 mm | - | 380 W/m² | - |
| 1788073671 | 18.89° C | 78% | 1021.6 hPa | 0 mm | - | 366 W/m² | - |
| 1788073357 | 18.33° C | 79% | 1021.6 hPa | 0 mm | - | 352 W/m² | - |
| 1788073069 | 18.33° C | 79% | 1021.7 hPa | 0 mm | - | 339 W/m² | - |
| 1788072761 | 18.33° C | 80% | 1021.7 hPa | 0 mm | - | 325 W/m² | - |
| 1788072458 | 17.78° C | 80% | 1021.7 hPa | 0 mm | - | 311 W/m² | - |
| 1788072172 | 17.78° C | 80% | 1021.6 hPa | 0 mm | - | 297 W/m² | - |
| 1788071861 | 17.78° C | 80% | 1021.6 hPa | 0 mm | - | 281 W/m² | - |
| 1788071568 | 17.78° C | 80% | 1021.6 hPa | 0 mm | - | 267 W/m² | - |
| 1788071254 | 17.78° C | 79% | 1021.5 hPa | 0 mm | - | 253 W/m² | - |
* Rain since midnight (hover to see other rain measurements)
** Current wind speed in m/s (hover to see current wind gust speed)